This demonstration page uses our WeatherBlox Daily Observations layout. Learn more.

Left ArrowRight Arrow

40.92945, -100.16068

Hourly Observations for September 18, 2017

Temp ( °F °C ) Dew Point ( °F °C ) Humidity (%) Winds ( mph kmh ) Pressure ( in mb ) Visibility ( mi km ) Precip ( " mm )
12:15 am 00:15 Cloudy 59 15 56 13.1 89 89 Calm 30.00 1016 10 16 0.01 0.25
12:35 am 00:35 Cloudy 59 15.2 56 13.2 88 88 Calm 30.00 1016 10 16 0.01 0.25
12:55 am 00:55 Cloudy 60 15.3 56 13.1 87 87 SSE 5 7 30.00 1016 10 16 0.01 0.25
1:15 am 01:15 Cloudy 60 15.5 56 13.1 86 86 Calm 30.00 1016 10 16 0.00 0.00
1:35 am 01:35 Cloudy 60 15.6 56 13.2 86 86 SSE 6 9 30.00 1016 10 16 0.00 0.00
1:55 am 01:55 Cloudy 60 15.6 56 13.5 87 87 Calm 30.00 1016 10 16 0.00 0.00
2:15 am 02:15 Cloudy 60 15.6 57 13.8 89 89 Calm 30.00 1016 10 16 0.00 0.00
2:35 am 02:35 Cloudy 60 15.7 57 14 90 90 SSE 3 6 30.00 1016 10 16 0.00 0.00
2:55 am 02:55 Cloudy 60 15.7 57 14.1 90 90 SSE 6 9 30.00 1016 10 16 0.01 0.25
3:15 am 03:15 Cloudy 60 15.8 57 14.1 90 90 S 6 9 30.00 1016 10 16 0.00 0.00
3:35 am 03:35 Cloudy with Nearby Thunderstorms 61 15.9 58 14.2 90 90 Calm 30.00 1016 10 16 0.00 0.00
3:55 am 03:55 Cloudy 60 15.7 58 14.2 91 91 NNW 5 7 30.00 1016 10 16 0.00 0.00
4:15 am 04:15 Cloudy with Light Rain 60 15.8 58 14.3 91 91 S 6 9 29.97 1015 7 11 0.00 0.00
4:35 am 04:35 Cloudy 60 15.8 58 14.4 91 91 SSE 9 15 29.97 1015 7 11 0.01 0.25
4:55 am 04:55 Mostly Cloudy 60 15.5 58 14.2 92 92 SW 3 6 29.94 1014 7 11 0.01 0.25
5:15 am 05:15 Cloudy 60 15.6 58 14.5 93 93 Calm 29.94 1014 7 11 0.00 0.00
5:35 am 05:35 Cloudy 60 15.7 58 14.5 93 93 S 3 6 29.94 1014 7 11 0.00 0.00
5:55 am 05:55 Cloudy 60 15.8 58 14.6 93 93 SSE 6 9 29.94 1014 7 11 0.00 0.00
6:15 am 06:15 Cloudy 61 16 59 15 94 94 SSE 3 6 29.88 1012 7 11 0.00 0.00
6:35 am 06:35 Cloudy 61 16 59 15 94 94 Calm 29.94 1014 7 11 0.00 0.00
6:55 am 06:55 Cloudy with Mist and Fog 61 16.1 59 15 93 93 Calm 29.94 1014 5 8 0.00 0.00
7:15 am 07:15 Cloudy with Mist and Fog 61 16.2 59 15.2 94 94 Calm 29.91 1013 5 8 0.00 0.00
7:35 am 07:35 Cloudy with Mist and Fog 61 16.3 60 15.3 94 94 SE 3 6 29.91 1013 3 5 0.00 0.00
7:55 am 07:55 Cloudy with Mist and Fog 61 16.3 60 15.4 94 94 SSE 3 6 29.91 1013 3 4 0.00 0.00
8:15 am 08:15 Cloudy with Mist and Fog 62 16.5 60 15.5 94 94 SSE 3 6 29.91 1013 3 4 0.00 0.00
8:35 am 08:35 Cloudy with Mist and Fog 62 16.5 60 15.6 94 94 SSE 6 9 29.94 1014 2 2 0.00 0.00
8:55 am 08:55 Cloudy with Rain 62 16.7 60 15.8 94 94 SSE 5 7 29.94 1014 2 2 0.00 0.00
9:15 am 09:15 Cloudy with Mist and Fog 62 16.8 61 15.9 94 94 S 6 9 29.94 1014 3 4 0.00 0.00
9:35 am 09:35 Cloudy with Mist and Fog 63 17.2 61 16.3 94 94 S 5 7 29.94 1014 3 4 0.00 0.00
9:55 am 09:55 Cloudy with Mist and Fog 63 17.4 62 16.4 94 94 S 6 9 29.94 1014 4 6 0.00 0.00
10:15 am 10:15 Cloudy with Mist and Fog 64 17.5 62 16.5 94 94 SSW 6 9 29.91 1013 3 5 0.00 0.00
10:35 am 10:35 Cloudy 65 18.1 62 16.4 90 90 SW 6 9 29.94 1014 10 16 0.00 0.00
10:55 am 10:55 Cloudy 65 18.3 61 16.1 87 87 SSW 8 13 29.91 1013 10 16 0.00 0.00
11:15 am 11:15 Cloudy 65 18.5 61 15.9 85 85 SW 7 11 29.91 1013 10 16 0.00 0.00
11:35 am 11:35 Cloudy 65 18.3 60 15.8 85 85 WSW 6 9 29.91 1013 10 16 0.00 0.00
11:55 am 11:55 Cloudy 65 18.5 60 15.7 84 84 W 7 11 29.91 1013 10 16 0.00 0.00
12:15 pm 12:15 Cloudy 67 19.3 60 15.5 79 79 WSW 5 7 29.91 1013 10 16 0.00 0.00
12:35 pm 12:35 Cloudy 67 19.3 60 15.3 78 78 W 6 9 29.91 1013 10 16 0.00 0.00
12:55 pm 12:55 Cloudy 67 19.7 60 15.4 76 76 SW 3 6 29.88 1012 10 16 0.00 0.00
1:15 pm 13:15 Cloudy 69 20.5 60 15.5 73 73 SW 5 7 29.85 1011 10 16 0.00 0.00
1:35 pm 13:35 Cloudy 68 20.1 60 15.5 75 75 WSW 5 7 29.85 1011 10 16 0.00 0.00
1:55 pm 13:55 Cloudy 70 21.2 60 15.4 70 70 SSW 3 6 29.85 1011 10 16 0.00 0.00
2:15 pm 14:15 Cloudy 70 21.1 60 15.6 71 71 S 7 11 29.85 1011 10 16 0.00 0.00
2:35 pm 14:35 Cloudy 71 21.7 60 15.8 69 69 SSE 7 11 29.83 1010 10 16 0.00 0.00
2:55 pm 14:55 Cloudy 72 22.1 61 15.9 68 68 SE 6 9 29.83 1010 10 16 0.00 0.00
3:15 pm 15:15 Mostly Cloudy 73 22.6 60 15.7 65 65 SSE 5 7 29.80 1009 10 16 0.00 0.00
3:35 pm 15:35 Partly Cloudy 73 22.9 60 15.8 64 64 ESE 7 11 29.80 1009 10 16 0.00 0.00
3:55 pm 15:55 Sunny 74 23.4 60 15.8 62 62 SSE 7 11 29.80 1009 10 16 0.00 0.00
4:15 pm 16:15 Sunny 76 24.2 60 15.5 58 58 SSW 3 6 29.80 1009 10 16 0.00 0.00
4:35 pm 16:35 Sunny 76 24.4 60 15.7 58 58 ESE 3 6 29.77 1008 10 16 0.00 0.00
4:55 pm 16:55 Sunny 77 25 61 15.9 57 57 E 6 9 29.77 1008 10 16 0.00 0.00
5:15 pm 17:15 Sunny 77 25.1 61 15.9 57 57 SSE 3 6 29.77 1008 10 16 0.00 0.00
5:35 pm 17:35 Sunny 78 25.8 60 15.8 54 54 S 6 9 29.74 1007 10 16 0.00 0.00
5:55 pm 17:55 Sunny 78 25.7 60 15.7 54 54 SE 6 9 29.74 1007 10 16 0.00 0.00
6:15 pm 18:15 Sunny 79 25.9 60 15.5 53 53 SSE 6 9 29.74 1007 10 16 0.00 0.00
6:35 pm 18:35 Sunny 78 25.8 60 15.3 52 52 SSE 7 11 29.71 1006 10 16 0.00 0.00
6:55 pm 18:55 Sunny 78 25.3 59 15.1 53 53 SSE 6 9 29.74 1007 10 16 0.00 0.00
7:15 pm 19:15 Sunny 76 24.4 59 15.2 57 57 SSE 5 7 29.77 1008 10 16 0.00 0.00
7:35 pm 19:35 Sunny 74 23.2 60 15.5 62 62 SE 5 7 29.77 1008 10 16 0.00 0.00
7:55 pm 19:55 Clear 70 21.2 60 15.3 69 69 SE 3 6 29.80 1009 10 16 0.00 0.00
8:15 pm 20:15 Clear 67 19.4 59 14.9 75 75 ESE 5 7 29.80 1009 10 16 0.00 0.00
8:35 pm 20:35 Clear 68 20 59 15.1 74 74 ESE 6 9 29.80 1009 10 16 0.00 0.00
8:55 pm 20:55 Clear 69 20.5 60 15.4 73 73 SE 7 11 29.80 1009 10 16 0.00 0.00
9:15 pm 21:15 Clear 69 20.4 60 15.5 74 74 SE 7 11 29.80 1009 10 16 0.00 0.00
9:35 pm 21:35 Clear 67 19.6 59 15.2 76 76 SE 6 9 29.80 1009 10 16 0.00 0.00
9:55 pm 21:55 Clear 67 19.7 59 15.2 75 75 SE 6 9 29.80 1009 10 16 0.00 0.00
10:15 pm 22:15 Clear 66 19.1 59 15 77 77 SE 7 11 29.80 1009 10 16 0.00 0.00
10:35 pm 22:35 Clear 67 19.7 60 15.3 76 76 SE 9 15 29.80 1009 10 16 0.00 0.00
10:55 pm 22:55 Clear 67 19.6 60 15.5 77 77 SE 8 13 29.80 1009 10 16 0.00 0.00
11:15 pm 23:15 Clear 68 19.9 60 15.8 77 77 SE 9 15 29.80 1009 10 16 0.00 0.00
11:35 pm 23:35 Clear 67 19.4 61 16 81 81 SE 9 15 29.77 1008 10 16 0.00 0.00
11:55 pm 23:55 Clear 67 19.6 62 16.6 83 83 SE 10 17 29.77 1008 10 16 0.00 0.00

Powered by AerisWeather